TimeAKST,TemperatureF,Dew PointF,Humidity,Sea Level PressureIn,VisibilityMPH,Wind Direction,Wind SpeedMPH,Gust SpeedMPH,PrecipitationIn,Events,Conditions,WindDirDegrees,DateUTC
12:16 AM,30.2,14.0,51,29.29,10.0,East,15.0,21.9,N/A,,Overcast,100,2012-12-01 09:16:00
12:36 AM,30.2,14.0,51,29.29,10.0,East,16.1,20.7,N/A,,Overcast,90,2012-12-01 09:36:00
12:56 AM,30.2,14.0,51,29.29,10.0,East,17.3,20.7,N/A,,Overcast,90,2012-12-01 09:56:00
1:16 AM,30.2,14.0,51,29.29,10.0,East,18.4,24.2,N/A,,Overcast,90,2012-12-01 10:16:00
1:36 AM,28.4,12.2,51,29.30,10.0,East,17.3,25.3,N/A,,Overcast,90,2012-12-01 10:36:00
1:56 AM,28.4,12.2,51,29.29,10.0,East,19.6,27.6,N/A,,Overcast,80,2012-12-01 10:56:00
2:16 AM,28.4,15.8,59,29.30,10.0,East,19.6,25.3,N/A,,Overcast,100,2012-12-01 11:16:00
2:36 AM,28.4,14.0,55,29.30,9.0,East,17.3,28.8,N/A,,Overcast,100,2012-12-01 11:36:00
2:56 AM,28.4,14.0,55,29.31,10.0,East,16.1,-,N/A,,Overcast,100,2012-12-01 11:56:00
3:16 AM,28.4,14.0,55,29.31,10.0,East,16.1,23.0,N/A,,Overcast,100,2012-12-01 12:16:00
3:36 AM,28.4,15.8,59,29.30,10.0,East,15.0,21.9,N/A,,Overcast,90,2012-12-01 12:36:00
3:56 AM,28.4,15.8,59,29.29,10.0,East,15.0,23.0,N/A,,Overcast,100,2012-12-01 12:56:00
4:16 AM,28.4,15.8,59,29.29,10.0,East,16.1,23.0,N/A,,Overcast,90,2012-12-01 13:16:00
4:36 AM,28.4,14.0,55,29.29,10.0,East,16.1,20.7,N/A,,Overcast,100,2012-12-01 13:36:00
4:56 AM,28.4,15.8,59,29.29,10.0,East,17.3,24.2,N/A,,Overcast,90,2012-12-01 13:56:00
5:16 AM,28.4,14.0,55,29.29,10.0,East,16.1,25.3,N/A,,Overcast,90,2012-12-01 14:16:00
5:36 AM,28.4,15.8,59,29.29,10.0,East,17.3,25.3,N/A,,Overcast,100,2012-12-01 14:36:00
5:56 AM,28.4,15.8,59,29.28,10.0,East,16.1,21.9,N/A,,Overcast,90,2012-12-01 14:56:00
6:16 AM,28.4,14.0,55,29.28,10.0,East,17.3,23.0,N/A,,Overcast,90,2012-12-01 15:16:00
6:36 AM,28.4,15.8,59,29.28,10.0,East,17.3,25.3,N/A,,Overcast,90,2012-12-01 15:36:00
6:56 AM,28.4,14.0,55,29.28,10.0,East,16.1,25.3,N/A,,Overcast,90,2012-12-01 15:56:00
7:16 AM,28.4,15.8,59,29.29,10.0,East,15.0,21.9,N/A,,Overcast,80,2012-12-01 16:16:00
7:36 AM,28.4,15.8,59,29.28,10.0,ESE,15.0,20.7,N/A,,Overcast,110,2012-12-01 16:36:00
7:56 AM,28.4,15.8,59,29.29,10.0,East,17.3,20.7,N/A,,Overcast,100,2012-12-01 16:56:00
8:16 AM,28.4,14.0,55,29.29,10.0,East,16.1,20.7,N/A,,Overcast,100,2012-12-01 17:16:00
8:36 AM,28.4,14.0,55,29.28,10.0,East,16.1,23.0,N/A,,Overcast,100,2012-12-01 17:36:00
8:56 AM,28.4,15.8,59,29.28,10.0,East,16.1,23.0,N/A,,Overcast,100,2012-12-01 17:56:00
9:16 AM,28.4,15.8,59,29.28,10.0,East,16.1,21.9,N/A,,Overcast,90,2012-12-01 18:16:00
9:36 AM,28.4,15.8,59,29.29,10.0,East,12.7,-,N/A,,Overcast,100,2012-12-01 18:36:00
9:56 AM,28.4,15.8,59,29.29,10.0,East,18.4,23.0,N/A,,Overcast,100,2012-12-01 18:56:00
10:16 AM,26.6,17.6,69,29.29,10.0,East,17.3,23.0,N/A,,Overcast,100,2012-12-01 19:16:00
10:36 AM,26.6,17.6,69,29.30,10.0,East,11.5,18.4,N/A,,Overcast,100,2012-12-01 19:36:00
10:56 AM,26.6,19.4,74,29.29,10.0,East,11.5,-,N/A,,Overcast,90,2012-12-01 19:56:00
11:16 AM,26.6,17.6,69,29.29,10.0,East,11.5,17.3,N/A,,Overcast,100,2012-12-01 20:16:00
11:36 AM,26.6,19.4,74,29.28,10.0,ESE,12.7,18.4,N/A,,Overcast,110,2012-12-01 20:36:00
11:56 AM,26.6,19.4,74,29.28,10.0,East,9.2,-,N/A,,Overcast,90,2012-12-01 20:56:00
12:16 PM,26.6,19.4,74,29.28,10.0,East,9.2,16.1,N/A,,Overcast,100,2012-12-01 21:16:00
12:36 PM,26.6,19.4,74,29.28,10.0,East,12.7,18.4,N/A,,Overcast,100,2012-12-01 21:36:00
12:56 PM,26.6,17.6,69,29.27,10.0,East,11.5,17.3,N/A,,Overcast,100,2012-12-01 21:56:00
1:16 PM,26.6,19.4,74,29.27,10.0,East,11.5,-,N/A,,Overcast,100,2012-12-01 22:16:00
1:36 PM,26.6,19.4,74,29.27,10.0,East,10.4,18.4,N/A,,Overcast,90,2012-12-01 22:36:00
1:56 PM,26.6,17.6,69,29.27,10.0,East,5.8,-,N/A,,Overcast,100,2012-12-01 22:56:00
2:16 PM,28.4,17.6,64,29.26,10.0,East,12.7,18.4,N/A,,Overcast,90,2012-12-01 23:16:00
2:36 PM,26.6,17.6,69,29.26,10.0,ESE,12.7,-,N/A,,Overcast,110,2012-12-01 23:36:00
2:56 PM,26.6,19.4,74,29.26,8.0,East,13.8,-,N/A,,Overcast,90,2012-12-01 23:56:00
3:16 PM,26.6,19.4,74,29.26,8.0,East,9.2,-,N/A,,Overcast,100,2012-12-02 00:16:00
3:36 PM,26.6,19.4,74,29.26,8.0,East,10.4,-,N/A,,Overcast,100,2012-12-02 00:36:00
3:56 PM,26.6,19.4,74,29.25,8.0,East,10.4,-,N/A,,Overcast,90,2012-12-02 00:56:00
4:16 PM,26.6,17.6,69,29.25,8.0,East,10.4,-,N/A,,Overcast,90,2012-12-02 01:16:00
4:36 PM,26.6,17.6,69,29.25,8.0,East,9.2,-,N/A,,Overcast,90,2012-12-02 01:36:00
4:56 PM,26.6,19.4,74,29.25,7.0,East,10.4,-,N/A,,Overcast,90,2012-12-02 01:56:00
5:16 PM,26.6,19.4,74,29.25,7.0,ESE,10.4,-,N/A,,Overcast,110,2012-12-02 02:16:00
5:36 PM,26.6,17.6,69,29.25,7.0,East,8.1,18.4,N/A,,Overcast,100,2012-12-02 02:36:00
5:56 PM,26.6,17.6,69,29.24,7.0,East,10.4,-,N/A,,Overcast,90,2012-12-02 02:56:00
6:16 PM,26.6,17.6,69,29.24,8.0,East,9.2,-,N/A,,Overcast,100,2012-12-02 03:16:00
6:36 PM,26.6,19.4,74,29.24,8.0,East,5.8,-,N/A,,Overcast,90,2012-12-02 03:36:00
6:56 PM,26.6,17.6,69,29.23,8.0,East,9.2,-,N/A,,Overcast,100,2012-12-02 03:56:00
7:16 PM,26.6,17.6,69,29.23,8.0,East,8.1,-,N/A,,Overcast,90,2012-12-02 04:16:00
7:36 PM,26.6,17.6,69,29.23,8.0,ESE,9.2,-,N/A,,Overcast,110,2012-12-02 04:36:00
7:56 PM,26.6,19.4,74,29.23,8.0,East,9.2,-,N/A,,Overcast,90,2012-12-02 04:56:00
8:16 PM,26.6,19.4,74,29.23,8.0,NNE,4.6,-,N/A,,Overcast,30,2012-12-02 05:16:00
8:36 PM,26.6,17.6,69,29.22,8.0,ESE,10.4,16.1,N/A,,Overcast,110,2012-12-02 05:36:00
8:56 PM,26.6,17.6,69,29.22,9.0,East,8.1,-,N/A,,Overcast,80,2012-12-02 05:56:00
9:16 PM,26.6,17.6,69,29.21,9.0,East,10.4,-,N/A,,Overcast,100,2012-12-02 06:16:00
9:36 PM,26.6,17.6,69,29.21,9.0,East,10.4,-,N/A,,Overcast,100,2012-12-02 06:36:00
9:56 PM,26.6,19.4,74,29.21,5.0,ESE,9.2,-,N/A,,Overcast,110,2012-12-02 06:56:00
10:16 PM,26.6,19.4,74,29.21,5.0,East,6.9,-,N/A,,Overcast,90,2012-12-02 07:16:00
10:36 PM,24.8,17.6,74,29.21,5.0,NNE,4.6,-,N/A,,Overcast,30,2012-12-02 07:36:00
10:56 PM,24.8,19.4,80,29.21,5.0,NNW,4.6,-,N/A,,Overcast,340,2012-12-02 07:56:00
11:16 PM,24.8,19.4,80,29.20,10.0,NNE,3.5,-,N/A,,Overcast,30,2012-12-02 08:16:00
11:36 PM,26.6,17.6,69,29.20,10.0,NNE,6.9,-,N/A,,Overcast,20,2012-12-02 08:36:00
11:56 PM,26.6,19.4,74,29.19,10.0,NE,3.5,-,N/A,,Overcast,40,2012-12-02 08:56:00